Date,TemperatureHighF,TemperatureAvgF,TemperatureLowF,DewpointHighF,DewpointAvgF,DewpointLowF,HumidityHigh,HumidityAvg,HumidityLow,PressureMaxIn,PressureMinIn,WindSpeedMaxMPH,WindSpeedAvgMPH,GustSpeedMaxMPH,PrecipitationSumIn
2013-11-1,61.0,49.9,42.0,-99.9,-99.9,-99.9,0,0,100,0.00,40.00,9,3,10,0.00
2013-11-2,55.0,49.7,42.0,-99.9,-99.9,-99.9,0,0,100,0.00,40.00,22,8,33,0.00
2013-11-3,49.0,44.9,42.0,-99.9,-99.9,-99.9,0,0,100,0.00,40.00,18,6,23,0.00
2013-11-4,48.0,43.0,36.0,-99.9,-99.9,-99.9,0,0,100,0.00,40.00,7,3,11,0.00
2013-11-5,51.0,46.0,42.0,-99.9,-99.9,-99.9,0,0,100,0.00,40.00,10,2,11,0.00
2013-11-6,51.0,48.5,46.0,-99.9,-99.9,-99.9,0,0,100,0.00,40.00,4,2,8,0.00
2013-11-7,51.0,48.1,46.0,-99.9,-99.9,-99.9,0,0,100,0.00,40.00,6,2,9,0.00
2013-11-8,53.0,49.8,47.0,-99.9,-99.9,-99.9,0,0,100,0.00,40.00,6,3,14,0.00
2013-11-9,52.0,44.6,35.0,-99.9,-99.9,-99.9,0,0,100,0.00,40.00,6,2,8,0.00
2013-11-10,54.0,47.4,42.0,-99.9,-99.9,-99.9,0,0,100,0.00,40.00,5,1,5,0.00
2013-11-11,53.0,48.8,44.0,-99.9,-99.9,-99.9,0,0,100,0.00,40.00,3,1,5,0.00
2013-11-12,55.0,49.0,42.0,-99.9,-99.9,-99.9,0,0,100,0.00,40.00,3,1,4,0.00
2013-11-13,59.0,50.7,44.0,-99.9,-99.9,-99.9,0,0,100,0.00,40.00,13,3,13,0.00
2013-11-14,52.0,45.8,35.0,-99.9,-99.9,-99.9,0,0,100,0.00,40.00,16,7,24,0.00
2013-11-15,48.0,47.0,45.0,-99.9,-99.9,-99.9,0,0,100,0.00,40.00,16,7,27,0.00
2013-11-16,47.0,45.0,39.0,-99.9,-99.9,-99.9,0,0,100,0.00,40.00,23,6,26,0.00
2013-11-17,53.0,47.3,37.0,-99.9,-99.9,-99.9,0,0,100,0.00,40.00,8,1,9,0.00
2013-11-18,49.0,46.2,43.0,-99.9,-99.9,-99.9,0,0,100,0.00,40.00,3,1,4,0.00
2013-11-19,53.0,49.6,45.0,-99.9,-99.9,-99.9,0,0,100,0.00,40.00,13,4,16,0.00
2013-11-20,43.0,38.4,32.0,-99.9,-99.9,-99.9,0,0,100,0.00,40.00,12,3,16,0.00
2013-11-21,38.0,29.2,18.0,-99.9,-99.9,-99.9,0,0,100,0.00,40.00,4,1,6,0.00
2013-11-22,36.0,28.0,22.0,-99.9,-99.9,-99.9,0,0,100,0.00,40.00,5,2,10,0.00
2013-11-23,40.0,30.4,18.0,-99.9,-99.9,-99.9,0,0,100,0.00,40.00,5,2,7,0.00
2013-11-24,38.0,30.3,16.0,-99.9,-99.9,-99.9,0,0,100,0.00,40.00,4,1,4,0.00
2013-11-25,39.0,30.6,25.0,-99.9,-99.9,-99.9,0,0,100,0.00,40.00,2,1,3,0.00
2013-11-26,40.0,32.6,27.0,-99.9,-99.9,-99.9,0,0,100,0.00,40.00,2,1,3,0.00
2013-11-27,41.0,34.9,29.0,-99.9,-99.9,-99.9,0,0,100,0.00,40.00,6,2,8,0.00
2013-11-28,40.0,33.3,29.0,-99.9,-99.9,-99.9,0,0,100,0.00,40.00,4,1,6,0.00
2013-11-29,39.0,33.1,23.0,-99.9,-99.9,-99.9,0,0,100,0.00,40.00,5,1,7,0.00
2013-11-30,42.0,37.2,34.0,-99.9,-99.9,-99.9,0,0,100,0.00,40.00,2,1,6,0.00